Back to catalog

NANCHANG HANGKONG 1

AliveScienceSSO
NORAD 64050·PAYLOAD·🇨🇳 China
This satellite name has not been confirmed by official sources yet.

Launched May 17, 2025 from Jiuquan Satellite Launch Center

Loading…

Next Passes (next 24 hours)

TLE

FreshSource: Space-Track

Epoch: Sep 14, 2026, 15:07 UTC

1 64050U 25103C   26257.63039750  .00002864  00000-0  13504-3 0  9997
2 64050  97.3670 327.2497 0002109 170.6494 189.4781 15.20269269 73657

Track NANCHANG HANGKONG 1 in real time with AllMySat

Download on the App Store